Вернуться в каталог

STARLINK-5605

АктивенСвязьVLEO
NORAD 55411·PAYLOAD·🇺🇸 United States

Запущен Jan 31, 2023 с Vandenberg Space Force Base

Loading…

Ближайшие Пролёты (ближайшие 24 часа)

TLE

СвежийSource: CelesTrak SupGP

Эпоха: Sep 15, 2026, 01:26 UTC

1 55411C 23014W   26258.06020833  .00054140  00000+0  45357-2 0  2588
2 55411  69.9996 307.1779 0003392 266.1197 200.1859 14.98314755    12

Отслеживайте STARLINK-5605 в реальном времени с AllMySat

Download on the App Store